Location: Arroyo de Valdeoliva
(40.1604°N, 4.9878°W)
Time: 04:51:19
(UTC+00:00)

AQUARIUS - Pass Details

Date: 11 December 2025
Orbit: 634 x 635 km, 98.0° (Epoch: 13 January)

Event Time Altitude Azimuth Distance (km) Brightness Sun altitude
Rises 18:02:43 0° 162° (SSE) 2,918 7.5 -12.7°
Reaches altitude 10° 18:04:55 10° 161° (SSE) 2,015 6.7 -13.1°
Maximum altitude 18:09:18 78° 75° (ENE) 654 4.0 -13.9°
Drops below altitude 10° 18:13:43 10° 350° (N) 2,029 6.6 -14.7°
Sets 18:15:55 0° 349° (N) 2,942 7.5 -15.1°
